Location: Artiguedieu
(43.5000°N, 0.5454°E)
Time: 13:07:17
(UTC+00:00)

Meteor 1-19 Rocket - Pass Details

Date: 06 December 2020
Orbit: 809 x 926 km, 81.2° (Epoch: 27 January)

Event Time Altitude Azimuth Distance (km) Brightness Sun altitude
Rises 06:37:25 0° 345° (NNW) 3,354 6.9 -7.1°
Reaches altitude 10° 06:39:51 10° 342° (NNW) 2,410 6.2 -6.7°
Maximum altitude 06:45:09 58° 265° (W) 939 4.2 -5.8°
Drops below altitude 10° 06:50:25 10° 187° (S) 2,391 6.8 -5.0°
Sets 06:52:50 0° 183° (S) 3,325 7.6 -4.6°
